map of PUQ home
Great Circle Mapper logo
PUQ - Airport
Location
City:  Punta Arenas, Magallanes, Chile
Name:Presidente Carlos Ibáñez del Campo International Airport
ICAO / IATA:SCCI / PUQ

Details
Type:Airport (Aerodrome, Airfield)
Use:Public/Civil, Military, International (customs port of entry)
Latitude:53°00'10"S (-53.002641)
Longitude:70°51'17"W (-70.854585)
Datum:WGS 1984
Elevation:139 ft (42 m)
Runways:3
Longest:9154 × 148 ft (2790 × 45 m), paved

Time
Time Zone:UTC-4 (DST-3)
Local Time:

Weather
METAR:SCCI 312100Z 21010KT 9999 BKN040 07/M05 Q1025 NOSIG
TAF:SCCI 311628Z 3118/0118 20012KT 9999 BKN045 TN03/0110Z TX13/0118Z
TEMPO 3118/3120 15010KT PROB40
TEMPO 3123/0101 9000 -DZ BKN025
BECMG 0100/0102 24010KT SCT040
BECMG 0112/0114 23015KT SCT032

Related Locations
Nearby:
Farthest:UUD: 12323 mi / 19832 km
Ulan Ude [Mukhino], Buryatia, RU

Find:

   beyond  
but within

Other Information
Maps:
NOTAMs:
Links:
Sources:

  
flag of Chile
flag of Magallanes
  

Sectional Chart

Flight Planning
at skyvector.com

Satellite Image

Google Maps Satellite View

 

Copyright © 2004-2014 Karl L. Swartz. All rights reserved.
The Great Circle Mapper name and logo are trademarks of the Great Circle Mapper.
All other trademarks mentioned herein belong to their respective owners.
Please see credits for attibutions and further copyright information.

  Follow gcmap on Facebook Follow gcmap on Twitter

hCard Microformat

Geo Microformat